Regional Weather Roundup
Issued by NWS

Current Version | Previous Version | Text Only | Print | Product List | Glossary On
Versions: 1 2 3 4 5 6 7 8 9 10 11 12 13 14 15 16 17 18 19 20 21 22 23 24 25 26 27 28 29 30 31 32 33 34 35 36 37 38 39 40 41 42 43 44 45 46 47 48 49 50
000
ASUS43 KDTX 040801
RWRMI
MICHIGAN HOURLY REGIONAL WEATHER ROUNDUP
NATIONAL WEATHER SERVICE DETROIT/PONTIAC MI
400 AM EDT TUE OCT 04 2022

NOTE: "FAIR" INDICATES FEW OR NO CLOUDS BELOW 12,000 FEET WITH NO
SIGNIFICANT WEATHER AND/OR OBSTRUCTION TO VISIBILITY.

MIZ047>049-052>055-059>063-066>070-074>076-081>083-040900-
SOUTHEAST LOWER MICHIGAN

CITY           SKY/WX    TMP DP  RH WIND       PRES   REMARKS
ADRIAN         PTCLDY    42  40  92 W3        30.27S
ALMA           CLEAR     37  36  98 CALM      30.27F
ANN ARBOR      MOCLDY    37  35  92 CALM      30.25S
BAD AXE        MOCLDY    37  37 100 CALM      30.25F FOG
CARO           CLEAR     38  36  92 CALM      30.25F
DETROIT CITY   PTCLDY    45  40  82 CALM      30.26S
DETROIT        CLOUDY    44  38  79 CALM      30.26S
FLINT          PTCLDY    40  38  93 CALM      30.26F
GROSSE ILE     PTCLDY    43  38  83 CALM      30.25S
HILLSDALE      PTCLDY    36  34  94 CALM      30.26S
HOWELL         MOCLDY    43  42  96 CALM      30.25F

CITY           SKY/WX    TMP DP  RH WIND       PRES   REMARKS
JACKSON        PTCLDY    37  37 100 CALM      30.27S FOG
LAMBERTVILLE   PTCLDY    38  36  93 CALM      30.26S
LANSING        CLEAR     40  38  93 CALM      30.27F
LAPEER         PTCLDY    37  35  91 CALM      30.25F
MASON          PTCLDY    39  37  93 CALM      30.26F
MONROE         PTCLDY    37  35  94 CALM      30.26R
MT. CLEMENS    CLEAR     41  40  99 CALM      30.24S
PONTIAC        PTCLDY    42  40  92 CALM      30.25F
PORT HURON     CLEAR     34  32  93 CALM      30.25S FOG
TRI CITIES     CLEAR     43  42  97 W6        30.27F
MIDLAND        CLEAR     37  37 100 CALM      30.26F
TROY           PTCLDY    45  40  82 CALM      30.27S
SAGINAW HB     CLEAR     41  39  93 CALM      30.26F
$$
MIZ043>046-050>051-056>058-064>065-071>073-077>080-040900-
SOUTHWEST LOWER MICHIGAN

CITY           SKY/WX    TMP DP  RH WIND       PRES   REMARKS
BATTLE CREEK   CLEAR     39  35  86 CALM      30.28F
BENTON HARBOR  CLEAR     39  37  92 CALM      30.27S
BIG RAPIDS     CLEAR     41  38  91 CALM      30.27F
COLDWATER      CLEAR     34  33  96 CALM      30.27S
FREMONT        FAIR      42  40  92 CALM      30.27S FOG
HOLLAND        FOG       40  38  93 CALM      30.27F VSB 1/2
GRAND RAPIDS   CLEAR     39  37  92 S3        30.28S
IONIA          FAIR      41  41 100 CALM      30.27S
KALAMAZOO      CLEAR     39  37  92 CALM      30.27F
LUDINGTON      PTCLDY    39  37  93 CALM      30.26S
MARSHALL       CLEAR     35  35  97 CALM      30.27S
MOUNT PLEASANT CLEAR     39  39 100 CALM      30.26F FOG
MUSKEGON       CLEAR     41  37  86 CALM      30.27F
SOUTH HAVEN    CLEAR     40  38  95 CALM      30.27S
$$
MIZ016>042-040900-
NORTHERN LOWER MICHIGAN

CITY           SKY/WX    TMP DP  RH WIND       PRES   REMARKS
ALPENA         PTCLDY    37  36  96 CALM      30.25S
BEAVER ISLAND  CLEAR     55  55 100 SW6       30.22F
CADILLAC       PTCLDY    36  34  95 CALM      30.25F
CHARLEVOIX     CLEAR     48  47  99 CALM      30.23F
FRANKFORT      PTCLDY    44  41  91 CALM      30.25F
GAYLORD        MOCLDY    45  39  79 SW3       30.24F
HARBOR SPRINGS CLOUDY    48  47  99 CALM      30.24S
HOUGHTON LAKE  CLEAR     33  32  96 CALM      30.27S
MANISTEE       MOCLDY    38  38 100 CALM      30.26F
OSCODA         MOCLDY    38  37  98 CALM      30.25F
PELLSTON       MOCLDY    43  42  97 CALM      30.24F
ROGERS CITY    PTCLDY    43  41  93 CALM      30.25S
TRAVERSE CITY  PTCLDY    50  44  80 CALM      30.23F
$$
MIZ007>008-015-040900-
EASTERN UPPER MICHIGAN

CITY           SKY/WX    TMP DP  RH WIND       PRES   REMARKS
KINROSS        PTCLDY    50  50 100 S6        30.22F
MACKINAC ISLAN CLEAR     51  51 100 S7        30.22F
NEWBERRY       PTCLDY    53  51  92 SW8       30.20S
S. S. MARIE    FOG       47  47 100 E3        30.21F VSB 1/2
$$
MIZ004>006-011>014-085-040900-
CENTRAL UPPER MICHIGAN

CITY           SKY/WX    TMP DP  RH WIND       PRES   REMARKS
MANISTIQUE     MOCLDY    56  52  88 SW6       30.20F
ESCANABA       MOCLDY    53  48  83 CALM      30.20F
MENOMINEE      PTCLDY    50  46  86 NW9       30.23F
MUNISING         N/A     53  49  86 S5        30.17F
$$
MIZ001>003-009>011-084-040900-
WESTERN UPPER MICHIGAN

CITY           SKY/WX    TMP DP  RH WIND       PRES   REMARKS
IRON MOUNTAIN  MOCLDY    54  49  83 CALM      30.19F
HOUGHTON       CLOUDY    62  50  64 W9        30.16F
COPPER HARBOR    N/A     64  51  62 VRB5      30.13F
IRONWOOD       CLOUDY    57  51  80 SW6       30.20F
$$

ABBREVIATIONS USED IN REMARKS
   TC - TEMPERATURE IN CELSIUS
  WCI - WIND CHILL INDEX
   HX - HEAT INDEX
  VSB - VISIBILITY




USA.gov is the U.S. government's official web portal to all federal, state and local government web resources and services.